sat.trackr.live / text

‹ back to catalog

UNKNOWN

NORAD 81599

UNKNOWN UNKNOWN UNKNOWN

§ Identity

Operator
Country
Launch date
Launch site
Launch vehicle
Mass (kg)
RCS (m²)

External: N2YO · Heavens-Above

§ Orbital elements

Epoch: 2026-09-17T21:13:14.159424Z

Period
108.13 min
Inclination
67.2961°
Eccentricity
0.0252194
Mean motion
13.31725544 rev/d
Perigee alt
950.7 km
Apogee alt
1,329.9 km
Semi-major
7,518.4 km
B*
2.1840e-3
RAAN
36.9461°
Arg perigee
243.9106°
Mean anomaly
197.4097°
Rev number
62,224

§ Raw data

UNKNOWN1 81599U          26260.88419166  .00001188  00000+0  21840-2 0  99952 81599  67.2961  36.9461 0252194 243.9106 197.4097 13.31725544622240

JSON: /api/v1/satellites/81599 · /tle

For live sub-satellite position, see the globe view (requires WebGL).

§ Visibility from observer

Set your observer location to see the next 7 days of passes ≥ 10°. The values pass through the URL so the page stays shareable.

No JS? Fill the form by hand. The geolocation button needs JavaScript.